Regional Weather Roundup
Issued by NWS Mobile, AL

Home | Current Version | Previous Version | Text Only | Print | Product List | Glossary On
Versions: 1 2 3 4 5 6 7 8 9 10 11 12 13 14 15 16 17 18 19 20 21 22 23 24 25 26 27
000
ASUS44 KMOB 261813
RWRMOB
REGIONAL WEATHER ROUNDUP
NATIONAL WEATHER SERVICE MOBILE AL
100 PM CDT MON JUN 26 2017

NOTE: "FAIR" INDICATES FEW OR NO CLOUDS BELOW 12,000 FEET WITH NO
      SIGNIFICANT WEATHER AND/OR OBSTRUCTIONS TO VISIBILITY.

  * THESE STATIONS ARE PART OF THE UNIVERSITY OF SOUTH ALABAMA
    MESONET AND ARE NOT UNDER NWS OR FAA QUALITY CONTROL.

ALZ061>064-261900-
COASTAL ALABAMA

CITY           SKY/WX    TMP DP  RH WIND       PRES   REMARKS
MOBILE REG APT PTSUNNY   84  62  47 NE8       30.11F
6HR MIN TEMP:  70; 6HR MAX TEMP:  86;

BROOKLEY FIELD SUNNY     85  65  51 E7        30.11F
6HR MIN TEMP:  73; 6HR MAX TEMP:  85;

USA CAMPUS*      N/A     84  64  51 CALM      30.10F
DOG RIVER*       N/A     82  64  54 E7        30.87F


CITY           SKY/WX    TMP DP  RH WIND       PRES   REMARKS
GULF SHORES    SUNNY     85  62  45 NW7       30.09F

$$

ALZ051>060-261900-
INTERIOR SOUTHWEST AND SOUTH CENTRAL ALABAMA

CITY           SKY/WX    TMP DP  RH WIND       PRES   REMARKS
GREENVILLE     SUNNY     85  58  39 NE9       30.11F
6HR MIN TEMP:  68; 6HR MAX TEMP:  85;

EVERGREEN      SUNNY     85  59  41 N9        30.12F
6HR MIN TEMP:  66; 6HR MAX TEMP:  85;

ATMORE*        NOT AVBL
ANDALUSIA/OPP  SUNNY     88  60  38 N8        30.10F
6HR MIN TEMP:  70; 6HR MAX TEMP:  88;

ANDALUSIA*     NOT AVBL
FLORALA APT    SUNNY     86  62  44 NE7       30.12S
6HR MIN TEMP:  68; 6HR MAX TEMP:  86;

FLORALA*         N/A     84  63  48 NW8       30.81F

$$

FLZ001>006-261900-
WESTERN FLORIDA PANHANDLE

CITY           SKY/WX    TMP DP  RH WIND       PRES   REMARKS
PENSACOLA      SUNNY     87  63  44 VRB6      30.09F
6HR MIN TEMP:  74; 6HR MAX TEMP:  87;

NAS PENSACOLA  PTSUNNY   87  57  35 NW9       30.08F
6HR MIN TEMP:  72; 6HR MAX TEMP:  88;

MILTON         MOSUNNY   85  63  47 NW7       30.09F
6HR MIN TEMP:  67; 6HR MAX TEMP:  85;

WHTNG S FIELD  MOSUNNY   88  63  43 N12       30.09F
6HR MIN TEMP:  71; 6HR MAX TEMP:  88;



CITY           SKY/WX    TMP DP  RH WIND       PRES   REMARKS
JAY*             N/A     82  55  39 NE8       30.10F
DUKE FIELD     MOSUNNY   86  61  42 N8        30.09F
CRESTVIEW      SUNNY     86  60  41 MISG      30.10F
6HR MIN TEMP:  69; 6HR MAX TEMP:  86;

VALPARAISO     MOSUNNY   88  59  37 N7        30.08F
6HR MIN TEMP:  70; 6HR MAX TEMP:  88;

DESTIN         CLOUDY    88  66  48 NE6       30.08F
6HR MIN TEMP:  75; 6HR MAX TEMP:  88;


$$

MSZ076-079-261900-
INTERIOR SOUTHEAST MISSISSIPPI

CITY           SKY/WX    TMP DP  RH WIND       PRES   REMARKS
LEAKESVILLE*   NOT AVBL
AGRICOLA*        N/A     84  63  48 CALM      30.11F

$$

MARINE OBSERVATIONS

STATION/POSITION TIME  TEMP    WIND        PRES    WAVE
                       AIR SEA DIR/SP/G            HT/PER
                 (UTC) (F)     (DEG/KT/KT) (MB)    (FT/S)
PASCAGOULA       1748   83      20/  6/  8 1019.1F
PETIT BOIS ISLND 1748   81      50/  9/ 11 1019.9F
GRAND BAY        1630   80      70/  6     1021.0S
KATRINA CUT      1730   79      60/ 10     1019.3F
CEDAR POINT      1730   79      40/  9     1019.6F
E DAUPHIN ISLAND 1700   78      10/  7/  9 1019.4F
MIDDLE BAY LIGHT 1730   80     350/ 10     1019.6S
USCG MOBILE BAY  1748   82 79   40/  5/  8 1020.1F
STATE DOCKS      1742   87 80              1019.5F
MEAHER PARK      1730   82      40/  4     1019.6F
FORT MORGAN      1748   80      10/  9/ 10   N/A
12 S ORANGE BCH  1750   78 81   40/  6/ 10 1018.7F   2/ 4
PENSACOLA BAY    1742   86 81              1019.1F
64 S DAUPHIN ISL 1750   81 85   70/ 10/ 12 1018.6F   3/ 5
67 S FORT MORGAN 1730   82      60/ 12     1018.6F

$$

SELECTED LOCATIONS ACROSS THE REGION

CITY           SKY/WX    TMP DP  RH WIND       PRES   REMARKS
NEW ORLEANS    MOSUNNY   84  70  62 NE9       30.09F
GULFPORT       MOSUNNY   86  65  49 E5        30.09F
PASCAGOULA AP  PTSUNNY   88  64  44 N9        30.09F
PASCAGOULA*    NOT AVBL
HATTIESBURG    SUNNY     83  61  47 SE5       30.13F
LAUREL         SUNNY     82  61  47 NE8       30.16F
MERIDIAN       MOSUNNY   84  58  40 E8        30.15F
JACKSON        SUNNY     85  58  39 E8        30.15F
MONTGOMERY     SUNNY     87  62  43 N12       30.12F
TROY           SUNNY     84  66  54 N7        30.12S
ASHFORD*       NOT AVBL
DOTHAN         SUNNY     86  62  44 VRB5      30.12F
PANAMA CITY    MOSUNNY   87  59  38 NW5       30.06F

$$





USA.gov is the U.S. government's official web portal to all federal, state and local government web resources and services.